CW6406 Weather Reports


time (UTC)temp
C
wind
direction
speed
KPH
gust
KPH
rain 1hr
cm
rain 24hr
cm
rain mn
cm
humidity
%
barometer
mb
20260504081553 8 360 1.6 4.8 0.00 0.00 0.00 67 1014.3
20260504050019 10 360 0.0 3.2 0.00 0.00 0.00 60 1014.7
20260504044540 9 360 0.0 8.0 0.00 0.00 0.00 61 1014.6
20260504043007 9 360 0.0 0.0 0.00 0.00 0.00 65 1014.5
20260504041527 9 360 0.0 0.0 0.00 0.00 0.00 65 1014.4
20260504040034 8 360 0.0 3.2 0.00 0.00 0.00 67 1014.4
20260504034551 8 360 0.0 1.6 0.00 0.00 0.00 68 1014.3
20260504033008 7 360 0.0 3.2 0.00 0.00 0.00 73 1014.3
20260504031532 7 360 0.0 3.2 0.00 0.00 0.00 81 1014.2
20260504030046 6 360 0.0 0.0 0.00 0.00 0.00 82 1014.4
20260504024558 6 360 0.0 0.0 0.00 0.00 0.00 82 1014.3
20260504024506 6 360 0.0 0.0 0.00 0.00 0.00 81 1014.3
20260504023024 6 360 0.0 0.0 0.00 0.00 0.00 82 1014.2
20260504021552 6 360 0.0 0.0 0.00 0.00 0.00 81 1014.2
20260504014518 7 360 0.0 0.0 0.00 0.00 0.00 76 1014.0
20260504013040 7 360 0.0 0.0 0.00 0.00 0.00 73 1014.0
20260504011501 8 360 0.0 0.0 0.00 0.00 0.00 70 1013.9
20260504010006 8 360 0.0 0.0 0.00 0.00 0.00 68 1013.8
20260504004524 10 360 0.0 0.0 0.00 0.00 0.00 63 1013.7
20260504003048 11 360 0.0 0.0 0.00 0.00 0.00 59 1013.6
20260504001512 12 360 0.0 0.0 0.00 0.00 0.00 54 1013.6
20260504000018 13 360 0.0 0.0 0.00 0.00 0.00 51 1013.5
20260503234544 15 360 0.0 0.0 0.00 0.00 0.00 45 1013.3
20260503233010 15 360 0.0 6.4 0.00 0.00 0.00 37 1013.3
20260503231538 16 360 0.0 8.0 0.00 0.00 0.00 37 1013.2
20260503230036 17 360 0.0 6.4 0.00 0.00 0.00 33 1013.1
20260503224604 18 211 1.6 4.8 0.00 0.00 0.00 31 1013.1
20260503223018 18 18 0.0 9.7 0.00 0.00 0.00 31 1013.2
20260503221534 18 281 3.2 6.4 0.00 0.00 0.00 30 1013.2
20260503220034 18 207 1.6 6.4 0.00 0.00 0.00 30 1013.4
20260503214603 18 236 4.8 8.0 0.00 0.00 0.00 29 1013.3
20260503213018 17 360 1.6 8.0 0.00 0.00 0.00 28 1013.3
20260503211606 18 297 1.6 12.9 0.00 0.00 0.00 30 1013.4
20260503210052 17 360 3.2 11.3 0.00 0.00 0.00 30 1013.5
20260503204505 18 259 1.6 9.7 0.00 0.00 0.00 31 1013.6
20260503203022 18 121 1.6 4.8 0.00 0.00 0.00 33 1013.6
20260503201544 18 284 3.2 11.3 0.00 0.00 0.00 33 1014.0
20260503200054 17 360 3.2 8.0 0.00 0.00 0.00 33 1014.1
20260503194508 17 360 3.2 12.9 0.00 0.00 0.00 34 1014.5
20260503193033 17 360 1.6 11.3 0.00 0.00 0.00 33 1014.7
20260503191605 16 360 3.2 11.3 0.00 0.00 0.00 34 1015.0
20260503190055 16 360 6.4 14.5 0.00 0.00 0.00 30 1015.2
20260503184520 16 360 3.2 9.7 0.00 0.00 0.00 37 1015.4
20260503183026 16 360 3.2 16.1 0.00 0.00 0.00 36 1015.5
20260503181615 15 360 4.8 11.3 0.00 0.00 0.00 36 1015.7
20260503181504 15 360 3.2 11.3 0.00 0.00 0.00 35 1015.7
20260503180117 15 360 4.8 16.1 0.00 0.00 0.00 35 1015.7
20260503174541 15 360 4.8 19.3 0.00 0.00 0.00 35 1015.9
20260503173107 15 360 6.4 14.5 0.00 0.00 0.00 35 1015.8
20260503171524 14 360 3.2 9.7 0.00 0.00 0.00 39 1016.1